sat.trackr.live / text

‹ back to catalog

STARLINK-37661

NORAD 69147 · 2026-110Z

PAYLOAD ACTIVE UNKNOWN

§ Identity

Operator
Country
US
Launch date
2026-05-20
Launch site
AFWTR
Launch vehicle
Mass (kg)
RCS (m²)

Purposes: comms

External: N2YO · Heavens-Above · Gunter

§ Orbital elements

Epoch: 2026-09-19T23:52:47.953344Z

Period
93.91 min
Inclination
97.2870°
Eccentricity
0.0001681
Mean motion
15.33449848 rev/d
Perigee alt
464.4 km
Apogee alt
466.7 km
Semi-major
6,843.7 km
B*
2.0139e-4
RAAN
98.1338°
Arg perigee
90.8951°
Mean anomaly
269.2485°
Rev number
2,014

§ Raw data

STARLINK-376611 69147U 26110Z   26262.99499946  .00006433  00000+0  20139-3 0  99972 69147  97.2870  98.1338 0001681  90.8951 269.2485 15.33449848 20144

JSON: /api/v1/satellites/69147 · /tle

For live sub-satellite position, see the globe view (requires WebGL).

§ Visibility from observer

Set your observer location to see the next 7 days of passes ≥ 10°. The values pass through the URL so the page stays shareable.

No JS? Fill the form by hand. The geolocation button needs JavaScript.